Tracking 29892 objects as of 21-Nov-2024
HD Live streaming from Space Station
objects crossing your sky now

STARLINK-4414

Track STARLINK-4414 now!
10-day predictions
STARLINK-4414 is classified as:


NORAD ID: 53213
Int'l Code: 2022-084AA
Perigee: 568.7 km
Apogee: 571.5 km
Inclination: 97.7 °
Period: 95.9 minutes
Semi major axis: 6941 km
RCS: Unknown
Launch date: July 22, 2022
Source: United States (US)
Launch site: AIR FORCE WESTERN TEST RANGE (AFWTR)
Your satellite tracking list
Your tracking list is empty




NASA's NSSDC Master Catalog

Two Line Element Set (TLE):
1 53213U 22084AA  24324.71073008  .00000331  00000-0  30352-4 0  9995
2 53213  97.6568  23.3219 0002013  91.7670 268.3785 15.01262420128578
Source of the keplerian elements: AFSPC